Regional Weather Roundup
Issued by NWS Upton, NY

Current Version | Previous Version | Graphics & Text | Print | Product List | Glossary Off
Versions: 1 2 3 4 5 6 7 8 9 10 11 12 13 14 15 16 17 18 19 20 21 22 23 24 25 26 27

000
ASUS41 KOKX 240109
RWROKX

REGIONAL WEATHER ROUNDUP
NATIONAL WEATHER SERVICE NEW YORK NY
900 PM EDT SUN JUL 23 2017

NOTE: "FAIR" INDICATES FEW OR NO CLOUDS BELOW 12,000 FEET WITH NO
SIGNIFICANT WEATHER AND/OR OBSTRUCTIONS TO VISIBILITY.

NYZ071-072-176-178-NJZ106-104-240200-
NEW YORK CITY METRO AREA

CITY           SKY/WX    TMP DP  RH WIND       PRES   REMARKS
Central Park   MOCLDY    73  67  81 CALM      29.88S
Bronx Bot Gard   N/A     73  64  73 SE12      29.87R
LaGuardia APRT CLOUDY    77  68  73 SE12      29.85R
Kennedy INTL   MOCLDY    74  71  91 E12       29.85S
Breezy Point     N/A     73 N/A N/A SE12        N/A
Newark/Liberty CLOUDY    75  68  78 SE9       29.85R
Teterboro      CLOUDY    76  66  71 S5        29.84R
$$

NYZ177-179-078>081-240200-
LONG ISLAND NEW YORK

CITY           SKY/WX    TMP DP  RH WIND       PRES   REMARKS
Jones Beach      N/A     72 N/A N/A E10         N/A
Matinecock PT    N/A     72 N/A N/A E7          N/A
Farmingdale    CLOUDY    73  68  84 E10       29.86R
MacArthur/ISP  CLOUDY    72  66  81 E9        29.87R
Shirley        CLOUDY    71  65  81 CALM      29.89R
Mt Sinai Harb    N/A    N/A N/A N/A SE6         N/A
Westhampton    CLOUDY    70  62  76 E7        29.87R
East Hampton   CLOUDY    69  59  70 E6        29.89R
Montauk          N/A     69  60  73 VRB5      29.91R
$$

NYZ052-065-067-240200-
HUDSON VALLEY

CITY           SKY/WX    TMP DP  RH WIND       PRES   REMARKS
White Plains   NOT AVBL
Larchmont Harb   N/A     72 N/A N/A E9          N/A
Croton O-T Hud   N/A     73 N/A N/A E3          N/A
Newburgh       MOCLDY    73  68  83 VRB5      29.86S
Montgomery     CLOUDY    73  68  84 SE6       29.85R
Poughkeepsie   CLOUDY    72  63  73 SE5       29.84R
Albany         CLOUDY    75  62  64 SE5       29.83R
$$

NJZ001-105-106-008-010-013-015-019>022-104-240200-
NEW JERSEY

CITY           SKY/WX    TMP DP  RH WIND       PRES   REMARKS
Newark/Liberty CLOUDY    75  68  78 SE9       29.85R
Teterboro      CLOUDY    76  66  71 S5        29.84R
Caldwell       CLOUDY    74  32  21 S6        29.86R
Somerville     CLOUDY    74  67  78 CALM      29.83R
Linden         FAIR      74  67  78 SE12      29.85S
Perth Amboy      N/A     73 N/A N/A E13         N/A
Sussex         CLOUDY    74  67  78 SE3       29.85R
Andover          N/A     72  66  81 VRB3      29.86R
Trenton        RAIN      73  69  87 SE7       29.84R
Millville      RAIN      75  75 100 E8        29.80R
Atlantic City  CLOUDY    75  73  93 E8        29.82R
Wrightstown    LGT RAIN  71  68  88 SE8       29.82R
Toms River     CLOUDY    74  66  76 E3        29.84S
Belmar         CLOUDY    74  66  76 E8        29.85S
$$

PAZ047>061-062-071-240200-
EASTERN PENNSYLVANIA

CITY           SKY/WX    TMP DP  RH WIND       PRES   REMARKS
Philadelphia   RAIN      73  70  90 NE7       29.82R
Allentown      RAIN      74  67  78 SE7       29.83R
Scranton       CLOUDY    75  67  76 SE9G20    29.80R
$$

CTZ002-004>006-009-010-012-RIZ004-006-007-MAZ004-011-015-240200-
SOUTHERN NEW ENGLAND
 IN CT

CITY           SKY/WX    TMP DP  RH WIND       PRES   REMARKS
Bradley INTL   MOCLDY    72  57  59 S9        29.88R
Hartford       MOCLDY    73  57  57 S3        29.88R
Danbury        CLOUDY    71  63  75 VRB5      29.89R
Wtrbury/Oxford MOCLDY    68  57  68 SE7       29.88R
Bridgeport     CLOUDY    73  64  73 SE10      29.87S
Meriden        CLOUDY    70  58  65 S5        29.88S
New Haven      CLOUDY    72  60  66 E12       29.88R
Chester        FAIR      68  57  68 SE6       29.90S
Groton         CLOUDY    69  60  73 E12       29.89R
Wilimantic     CLOUDY    73  54  51 E3        29.90R

 IN RI

CITY           SKY/WX    TMP DP  RH WIND       PRES   REMARKS
Providence     MOCLDY    68  55  63 E9        29.92R
Block Island   CLOUDY    67  59  75 E8        29.92R
Westerly       CLOUDY    70  58  65 E8        29.91R
 IN MA

CITY           SKY/WX    TMP DP  RH WIND       PRES   REMARKS
Boston         MOCLDY    65  56  72 SE7       29.93R
Worcester      MOCLDY    66  48  52 E7        29.93R
Westfield      CLOUDY    74  59  59 SE9       29.88R
Provincetown   PTCLDY    63  56  78 E5        29.94R
Nantucket      CLOUDY    63  59  87 E7        29.92R
$$

ANZ330-335-338-340-345-350-353-355-240200-
COASTAL MARINE OBSERVATIONS


STATION/POSITION TIME  SKY/WX   TEMP    WIND        PRES    VSBY  WAVE
                                AIR SEA DIR/SP/G                  HT/PER
                 (UTC)          (F)     (DEG/KT/KT) (MB)    (MI)  (FT/S)
NY HARB ENTRANCE 0050            75 76  110/ 14/ 16 1009.8          3/ 7
20 S FIRE ISLAND 0050            74 77  100/ 14/ 17 1009.9          4/ 7
GREAT SOUTH BAY  0030            74 82   80/ 14/ 17   N/A
23 SSW MONTAUK P 0050            72 74              1011.7          4/ 7
15 E BARNEGAT LI 0030               77                N/A           5/ 7
HUDSON CANYON    0050            74 77   80/ 17/ 19 1009.1          4/ 7
KINGS POINT      0030            73 73  160/  5/ 11 1010.8
EXECUTION ROCKS  0045            74     120/ 10/ 14   N/A
CENTRAL LI SOUND 0000            72     120/ 14/ 16   N/A           2
EASTERN LI SOUND NOT AVBL
ROBBINS REEF     0030                   120/ 16/ 19 1011.2
$$


>>>>>>>>>>>>>>>>>>>>>>>>>>>> KEY <<<<<<<<<<<<<<<<<<<<<<<<<<<
>                                                          <
>     SKY/WX - Sky Condition/Present Weather               <
>     TMP    - Temperature in Fahrenheit                   <
>     DP     - Dew Point in Fahrenheit                     <
>     RH     - Relative Humidity in Percent                <
>     WIND   - Direction (from) and Speed in MPH           <
>     PRES   - Mean Sea Level Pressure (inches of Hg)      <
>     WCI    - Wind Chill Index                            <
>     VSB    - VISIBILITY IN MILES                         <
>     HX     - HEAT INDEX                                  <
>     TC     - TEMPERATURE IN CELSIUS                      <
>     VRB    - VARIABLE WIND DIRECTION                     <
>                                                          <
>>>>>>>>>>>>>>>>>>>>>>>>>>>> KEY <<<<<<<<<<<<<<<<<<<<<<<<<<<




USA.gov is the U.S. government's official web portal to all federal, state and local government web resources and services.